Location: The Saddle
(36.8333°N, 80.3417°W)
Time: 08:55:56
(UTC-04:00)

A-11 Canister half - Pass Details

Date: 30 May 2024
Orbit: 1515 x 1685 km, 47.2° (Epoch: 17 June)

Event Time Altitude Azimuth Distance (km) Brightness Sun altitude
Exits shadow 23:42:00 47° 147° (SSE) 2,037 9.1 -26.9°
Maximum altitude 23:42:44 48° 135° (SE) 2,016 9.1 -26.9°
Drops below altitude 10° 23:51:43 10° 65° (ENE) 3,758 11.0 -27.7°
Sets 23:54:52 0° 60° (ENE) 4,723 11.7 -27.9°
